Melilla, Spain

4:26 PM CEST on September 19, 2017 (GMT +0200)
Melilla

Weather History for GEML - January, 2013

Change the Weather History Date:

Friday, January 25, 2013

  Actual Average Record
Temperature  
Mean Temperature 58 °F -  
Max Temperature 60 °F 63 °F 68 °F (2002)
Min Temperature 57 °F 51 °F 46 °F (2015)
Degree Days  
Heating Degree Days 6    
Growing Degree Days 8 (Base 50)    
Moisture  
Dew Point 55 °F    
Average Humidity 87    
Maximum Humidity 94    
Minimum Humidity 73    
Precipitation  
Precipitation 0.35 in 0.07 in - ()
Sea Level Pressure  
Sea Level Pressure 30.05 in    
Wind  
Wind Speed 14 mph ()    
Max Wind Speed 20 mph    
Max Gust Speed 34 mph    
Visibility 6.0 miles    
Events Rain    
Averages and records for this station are not official NWS values.
T = Trace of Precipitation, MM = Missing Value Source: Averaged Metar Reports

Daily Weather History Graph

Daily Weather History Graph

Search for Another Location

Airport or City:

Trip Planner

Search our weather history database for the weather conditions in past years. The results will help you decide how hot, cold, wet, or windy it might be!

Date:

Astronomy

Jan. 25, 2013 Rise Set
Actual Time 8:15 AM CET 6:32 PM CET
Civil Twilight 7:48 AM CET 7:00 PM CET
Nautical Twilight 7:17 AM CET 7:30 PM CET
Astronomical Twilight 6:47 AM CET 8:00 PM CET
Moon 5:16 PM CET (1/25) 6:45 AM CET (1/25)
Length of Visible Light 11h 11m
Length of Day
10h 17m
Waxing Gibbous, 97% of the Moon is Illuminated
Jan 25
Waxing Gibbous
Jan 27
Full
Feb 3
Last Quarter
Feb 10
New
Feb 17
First Quarter

Hourly Weather History & Observations

Time (CET) Temp. Dew Point Humidity Pressure Visibility Wind Dir Wind Speed Gust Speed Precip Events Conditions
6:00 AM 59.0 °F 53.6 °F 82% 30.01 in 6.2 mi West 18.4 mph 29.9 mph N/A   Partly Cloudy
6:30 AM 59.0 °F 53.6 °F 82% 30.01 in 6.2 mi West 17.3 mph 29.9 mph N/A   Partly Cloudy
7:00 AM 58 °F 52 °F 73% 30.02 in 12 mi West 16.1 mph - -   Partly Cloudy
7:00 AM 59.0 °F 53.6 °F 82% 30.01 in 6.2 mi West 17.3 mph 29.9 mph N/A   Partly Cloudy
7:30 AM 59.0 °F 53.6 °F 82% 30.04 in 6.2 mi West 17.3 mph 32.2 mph N/A   Partly Cloudy
8:00 AM 59.0 °F 51.8 °F 77% 30.04 in 6.2 mi West 17.3 mph 29.9 mph N/A   Partly Cloudy
8:30 AM 59.0 °F 53.6 °F 82% 30.04 in 6.2 mi West 15.0 mph 28.8 mph N/A   Partly Cloudy
9:00 AM 59.0 °F 53.6 °F 82% 30.04 in 6.2 mi West 13.8 mph 28.8 mph N/A   Partly Cloudy
9:30 AM 59.0 °F 53.6 °F 82% 30.04 in 6.2 mi West 16.1 mph - N/A   Scattered Clouds
10:00 AM 59.0 °F 53.6 °F 82% 30.06 in 6.2 mi West 16.1 mph 27.6 mph N/A Rain Light Rain
10:30 AM 59.0 °F 55.4 °F 88% 30.06 in 6.2 mi West 13.8 mph - N/A Rain Light Rain
11:00 AM 59.0 °F 55.4 °F 88% 30.06 in 6.2 mi West 12.7 mph 25.3 mph N/A Rain Light Rain
11:30 AM 59.0 °F 55.4 °F 88% 30.09 in 6.2 mi West 13.8 mph - N/A Rain Light Rain
11:42 AM 59.0 °F 55.4 °F 88% 30.09 in 5.0 mi West 12.7 mph - N/A Rain Light Rain
12:00 PM 57.2 °F 55.4 °F 94% 30.09 in 5.0 mi WNW 11.5 mph - N/A Rain Light Rain
12:30 PM 57.2 °F 55.4 °F 94% 30.09 in 3.7 mi West 10.4 mph - N/A Rain Rain
12:36 PM 57.2 °F 55.4 °F 94% 30.09 in 2.5 mi West 10.4 mph - N/A Rain Rain
1:00 PM 57 °F 54 °F 86% 30.08 in 2 mi West 9.2 mph - - Rain Rain
1:00 PM 57.2 °F 55.4 °F 94% 30.06 in 1.9 mi WNW 9.2 mph - N/A Rain Rain
1:30 PM 57.2 °F 55.4 °F 94% 30.06 in 5.0 mi West 10.4 mph - N/A Rain Light Rain
2:00 PM 59.0 °F 57.2 °F 94% 30.04 in 6.2 mi West 10.4 mph - N/A Rain Light Rain
2:30 PM 59.0 °F 57.2 °F 94% 30.04 in 2.5 mi West 12.7 mph 24.2 mph N/A Rain Rain
2:38 PM 59.0 °F 57.2 °F 94% 30.04 in 5.0 mi West 18.4 mph 31.1 mph N/A Rain Light Rain
3:00 PM 60.8 °F 57.2 °F 88% 30.04 in 6.2 mi West 19.6 mph 34.5 mph N/A Rain Light Rain
3:30 PM 60.8 °F 57.2 °F 88% 30.01 in 6.2 mi West 18.4 mph 31.1 mph N/A Rain Light Rain
4:00 PM 60.8 °F 57.2 °F 88% 30.01 in 6.2 mi West 15.0 mph 27.6 mph N/A   Mostly Cloudy
4:30 PM 60.8 °F 55.4 °F 82% 30.01 in 6.2 mi West 17.3 mph 28.8 mph N/A   Mostly Cloudy
5:00 PM 59.0 °F 55.4 °F 88% 30.04 in 6.2 mi West 18.4 mph 29.9 mph N/A   Mostly Cloudy
5:30 PM 59.0 °F 53.6 °F 82% 30.04 in 6.2 mi West 18.4 mph 32.2 mph N/A   Scattered Clouds
6:00 PM 59.0 °F 55.4 °F 88% 30.04 in 6.2 mi West 19.6 mph 34.5 mph N/A   Scattered Clouds
6:30 PM 59.0 °F 55.4 °F 88% 30.04 in 6.2 mi West 16.1 mph - N/A Rain Light Rain
7:00 PM 58 °F 55 °F 85% 30.05 in 16 mi West 9.2 mph - - Rain Light Rain
7:00 PM 59.0 °F 55.4 °F 88% 30.04 in 6.2 mi West 9.2 mph - N/A   Mostly Cloudy
7:30 PM 59.0 °F 55.4 °F 88% 30.04 in 6.2 mi West 8.1 mph - N/A   Mostly Cloudy